Location: Bratislava
(48.1500°N, 17.1170°E)
Time: 14:05:42
(UTC+01:00)

Tiangong 2 - Visible Passes

Search period start: 19 November 2018 00:00
Search period end: 29 November 2018 00:00
Orbit: 382 x 393 km, 42.8° (Epoch: 19 November)

Date Brightness Start Highest point End Pass type
(mag) Time Alt. Az. Time Alt. Az. Time Alt. Az.
24 Nov 4.1 06:28:55 10° S 06:30:37 14° SSE 06:32:20 10° ESE visible
26 Nov 3.7 06:07:35 10° SSW 06:09:57 19° SSE 06:12:19 10° ESE visible
27 Nov 3.9 05:09:56 11° S 05:11:33 14° SSE 05:13:19 10° ESE visible
28 Nov 3.1 05:46:45 11° SW 05:49:18 24° SSE 05:52:00 10° ESE visible
